COSMOS 1275 DEB, 13816

Orbit data source: Space-Track

COSMOS 1275 DEB, 13816 is space debris in LEO originally from a launch on Thu, 04 Jun 1981 UTC launched from the Plesetsk Missile And Space Complex (PKMTR). Debris objects in space refer to the collection of defunct objects orbiting the Earth. Examples of debris include non-operational satellites, rocket bodies, and fragments generated from explosions, collisions, or faulty payload assembly.

Loading next visibility...
Identifier
13816, 1981-053HL
Orbit
LEO
Country
Flag of CISCIS
Related business
Manufacturer
Unknown
Mission
Spacecraft
Bus & Motor
Unknown
Mass
Unknown
Launch date (UTC)
1981-06-04 (45 years ago)
Launch vehicle
Unknown
Launch site
Plesetsk Missile And Space Complex (PKMTR)
Object type
Payload
Rocket body
Debris
Shape & HBR
Unknown shape, 0.1 m
Radar Cross Section
Medium (>0.1 m² and <1 m²)

Expand to show TLE details & history
Last TLE update: 17 hours ago

TLE from 17 hours ago
0 COSMOS 1275 DEB
1 13816U 81053HL  26236.40267066  .00001646  00000-0  12393-2 0  9993
2 13816  82.9854  20.4860 0147913 348.9117  38.6390 13.88779358169751
Epoch: 2026-08-24T09:39Z
TLE epoch observation values (Epoch: 2026-08-24T09:39:50.745Z)
Latitude
28.43537°
Longitude
-93.36026°
Altitude
852.582 km
Speed
7.471 km/s
True Right ascension
01h 37m 08s
True Declination
28° 17' 37"
Sunlit
Object was in daylight at epoch
Visualization orbit readout
Latitude
Unknown
Longitude
Unknown
Altitude
Unknown
Speed
Unknown
Apparent Right ascension
Unknown
Apparent Declination
Unknown
Sunlit
N/A
Visualization observer readout
Local Sidereal Time
17:30:04
Azimuth
Unknown
Elevation
Unknown
Doppler factor
Unknown
Orbital elements
Apogee altitude
1,038.136 km
Perigee altitude
821.941 km
Semi-major axis
7,308.176 km
Eccentricity
0.01479
Inclination
82.9854°
RAAN
20.486°
Arg. of periapsis
348.9117°
True anomaly
39.71279°
Mean anomaly
38.639°
Eccentric anomaly
39.17434°
Mean motion
3.474 °/min
Orbital period
103.63 mins
BSTAR
0.0012393
Loading maneuver chart data...
Computing Atmospheric mass density...
Loading historical data...
Loading historical data...
Loading historical data...
Loading historical data...
Loading historical data...
Loading historical data...
Loading historical data...

Documentation

Showing up to 5 results
|